Wind_Speed
21 21 23 25 26 24 21 21 20 18 17 20 23 26 27 29 30 28 24 22 22 23 24 23 22 22 21 18 19 21 20 19 20 21 22 23 23 19 14 13 12 14 17 17 16 16 16 16 14 13 12 10 7 7 7 6 5 4 3 2 2 2 3 3 4 6 6 6 7 7 8 9 9 10 10 11 12 13 14 14 15 15 16 16 16 16
24 25 27 28 25 22 21 20 19 19 21 24 26 27 27 29 30 26 22 21 21 23 24 22 20 21 19 17 17 19 19 20 20 20 21 22 22 20 17 16 16 17 20 20 20 19 17 15 12 11 11 9 8 9 9 7 6 5 5 4 4 5 5 6 7 8 9 9 9 9 9 9 10 10 11 12 13 14 15 16 16 17 17 17 16 16
27 30 29 25 22 20 19 19 20 22 24 25 26 27 28 28 27 23 20 20 19 21 22 21 22 22 19 19 18 18 19 20 20 19 19 20 21 21 20 19 19 20 22 23 22 20 17 14 12 11 10 10 11 12 10 8 7 6 6 7 7 8 8 8 9 10 10 11 11 11 11 11 10 10 10 11 12 13 14 16 17 18 18 18 18 18
29 29 23 17 17 17 17 18 19 22 25 26 25 26 27 25 23 22 20 18 18 20 22 23 27 26 22 21 21 20 21 20 18 16 16 18 20 22 23 23 22 23 24 25 23 20 16 14 12 11 11 12 13 13 12 10 8 7 8 8 9 9 8 8 8 8 9 9 10 10 11 11 10 10 10 10 11 11 12 14 15 17 18 19 19 19
30 26 21 19 19 20 20 20 21 23 24 24 24 26 26 24 22 22 21 19 19 21 22 24 26 25 22 21 21 20 19 18 15 15 17 19 20 23 25 25 25 26 27 26 23 19 16 14 13 13 13 14 15 14 13 11 10 9 9 10 10 9 8 8 7 7 7 7 7 8 9 10 10 11 11 11 11 11 12 13 14 15 17 18 19 19
28 24 22 22 21 22 22 22 24 24 23 24 25 26 25 23 20 19 17 16 18 17 17 16 13 12 15 15 16 16 15 15 16 18 20 19 20 22 25 26 27 28 28 25 22 19 16 14 14 14 15 16 17 16 14 13 13 12 11 11 11 10 8 7 6 6 6 5 5 6 8 10 11 12 13 13 13 14 15 15 15 16 16 17 17 18
27 22 20 21 20 21 22 23 24 22 22 24 23 22 20 18 17 15 15 15 14 10 10 9 6 12 16 13 14 17 17 17 19 19 20 20 21 23 25 26 28 28 27 24 22 19 17 16 16 16 17 18 18 18 16 15 15 14 13 13 12 11 9 8 7 6 6 5 5 6 8 11 13 14 16 16 17 18 19 19 19 19 19 19 18 18
22 17 16 18 19 21 23 22 21 20 21 23 21 19 16 15 13 12 13 14 14 15 14 12 13 20 21 14 15 17 16 18 19 18 19 20 22 24 25 27 27 27 25 23 21 19 18 18 18 18 19 20 20 20 18 17 16 15 14 13 12 11 10 9 8 7 6 5 6 8 10 12 15 17 18 20 21 22 23 23 23 23 23 22 22 21
18 14 13 14 16 19 18 15 15 17 19 20 18 16 14 13 12 11 12 13 15 17 13 13 15 16 17 16 13 11 13 17 17 16 16 18 21 23 25 26 26 26 24 21 20 19 20 20 20 21 21 22 22 21 20 18 17 16 15 14 13 12 11 10 9 8 7 7 8 10 13 15 18 19 20 21 22 23 24 25 26 26 26 26 25 25
18 16 13 13 15 15 12 11 14 16 16 16 15 14 13 12 12 12 13 13 15 14 11 13 15 11 15 19 12 11 13 13 11 13 15 17 19 21 23 25 25 24 22 20 20 20 21 22 22 23 24 24 24 22 21 19 17 16 15 14 14 13 12 11 10 9 9 9 11 14 16 18 19 20 21 22 23 24 25 26 27 28 29 28 28 28
21 19 17 16 15 13 11 13 16 15 15 16 14 13 12 13 13 13 14 12 11 10 8 13 17 13 10 9 6 9 10 7 8 12 13 13 14 15 18 20 21 21 20 20 21 22 22 23 24 25 26 25 24 23 21 19 18 16 16 16 15 15 14 13 12 12 12 13 15 17 18 19 20 21 23 24 25 26 27 28 29 30 31 31 31 31
21 20 20 20 18 16 15 15 16 16 17 16 14 14 12 10 10 11 12 10 6 4 3 8 13 16 15 9 7 9 7 6 9 12 12 11 9 10 13 16 17 18 19 20 22 23 24 25 26 26 26 26 25 23 21 20 19 18 18 17 17 16 15 15 15 15 16 17 18 19 20 21 22 24 26 27 28 29 30 31 31 32 33 34 35 35
19 19 18 18 19 19 18 17 17 17 18 17 16 15 11 4 3 5 5 3 6 8 9 10 10 16 25 25 21 19 15 10 10 12 14 11 8 12 13 14 16 16 18 20 22 25 26 27 28 27 27 26 24 23 22 21 20 20 20 19 18 17 17 18 19 20 21 23 24 26 27 29 31 32 33 34 34 34 34 34 34 34 34 35 36 37
15 15 17 19 20 20 21 22 20 19 19 20 20 19 13 4 2 3 3 1 6 10 13 14 11 13 22 25 24 25 22 17 14 16 17 17 19 20 18 17 16 16 18 20 23 26 28 29 29 28 27 26 25 24 23 22 22 21 20 20 19 20 21 22 24 25 27 28 30 33 37 39 41 41 41 40 40 40 40 39 38 37 36 36 37 38
10 10 13 16 18 19 22 23 22 20 18 19 21 21 19 13 7 4 3 3 4 6 6 9 9 8 12 15 18 18 16 15 17 19 21 23 24 21 19 18 16 18 20 22 25 27 29 29 29 28 27 26 25 24 24 23 23 22 21 21 22 24 25 27 28 29 30 32 36 40 43 44 46 46 46 45 44 44 44 43 43 41 39 38 37 38
13 14 14 14 15 15 17 20 22 23 20 17 19 22 23 22 18 11 7 9 7 4 5 10 11 14 18 23 25 19 15 15 14 16 18 18 18 17 18 19 20 22 23 25 27 28 28 28 28 27 26 25 25 25 25 25 23 23 23 24 26 28 29 30 31 33 35 39 43 45 45 44 45 46 46 47 47 47 46 45 44 43 41 39 38 37
12 13 14 14 15 15 14 15 20 24 21 17 20 24 24 23 22 15 11 13 9 5 10 13 16 23 26 30 33 26 22 21 18 16 16 15 17 18 20 21 22 23 24 25 27 27 28 28 27 27 26 26 27 26 26 25 24 25 26 28 30 32 34 35 36 39 42 45 46 46 45 44 44 44 45 46 47 48 48 48 47 44 42 40 39 39
15 14 14 13 14 16 16 16 19 24 23 20 21 22 20 18 19 16 8 5 4 3 8 14 21 26 22 23 28 25 22 21 19 18 18 19 22 22 22 23 23 23 23 24 26 27 27 27 27 27 27 27 27 26 25 25 26 28 30 32 34 36 38 40 42 45 47 48 47 45 44 44 44 44 44 45 46 47 48 49 48 47 45 44 44 45
19 18 17 16 16 16 17 19 19 21 23 24 23 21 18 14 13 15 10 4 4 3 4 11 20 27 29 29 31 28 24 21 18 18 20 22 23 23 23 22 21 21 21 22 25 26 27 27 27 27 27 27 26 26 27 28 30 32 34 37 39 41 43 45 47 49 48 47 46 45 44 43 43 42 43 43 44 44 45 46 46 47 47 48 49 49
21 17 14 15 19 20 21 23 25 24 24 26 26 25 24 19 14 17 17 11 8 5 5 8 10 20 32 32 25 21 21 21 20 20 20 19 18 18 17 16 17 18 19 21 23 25 26 27 28 28 27 27 28 29 30 32 34 37 39 42 43 45 47 48 48 48 47 46 44 43 43 42 42 42 42 42 42 42 43 43 45 46 47 48 48 47
24 21 17 15 17 21 24 25 27 28 26 27 28 28 28 27 22 19 20 21 15 5 3 5 6 17 28 24 15 15 18 19 19 18 17 15 15 16 17 18 20 20 20 22 24 26 27 28 27 27 27 28 29 31 34 37 40 43 45 46 48 49 49 49 49 48 47 45 44 44 44 44 44 43 43 42 41 41 41 42 43 43 44 44 44 44
24 24 23 21 20 23 26 26 26 26 26 26 28 29 30 32 29 17 12 23 26 14 8 6 5 18 30 25 21 21 19 18 18 19 20 21 21 23 23 23 23 22 22 24 25 26 27 26 26 27 28 30 33 37 40 43 45 46 48 48 49 49 48 48 47 47 46 45 44 44 44 44 43 42 41 40 39 39 38 38 39 39 39 40 40 41
24 24 25 26 25 24 23 24 25 24 25 26 27 30 31 32 35 26 14 20 23 19 19 12 7 22 34 32 30 28 24 22 22 24 25 24 25 25 24 22 20 20 21 23 24 24 25 26 28 31 34 37 39 42 43 45 46 46 46 45 45 45 44 44 43 43 42 41 41 40 40 40 39 38 38 36 35 35 34 35 35 35 36 36 37 38
23 23 24 25 25 24 22 23 24 22 23 26 29 32 33 33 36 35 30 27 20 18 20 9 6 22 31 31 33 31 26 24 24 24 23 23 24 24 21 19 17 18 20 22 24 26 28 32 35 37 39 40 41 42 42 43 42 41 41 40 40 40 39 39 38 38 37 37 36 36 36 36 36 36 35 34 33 33 32 32 32 33 33 34 35 36
23 24 23 19 13 14 15 15 19 24 26 29 30 32 34 36 37 36 37 33 19 18 21 12 11 22 23 23 27 23 20 22 22 21 23 24 24 22 19 17 17 20 23 25 28 32 35 37 38 38 38 39 40 40 40 39 38 37 36 36 36 36 36 36 35 35 35 34 34 34 34 35 34 34 33 32 32 31 31 32 32 33 33 34 35 36
24 25 25 20 12 11 12 11 16 24 27 29 32 33 34 37 37 35 35 29 17 15 23 24 23 24 22 22 24 21 23 26 25 25 27 27 23 18 17 20 24 26 26 29 33 36 38 38 37 36 37 37 37 37 37 36 35 35 35 35 36 36 35 35 35 35 34 33 32 33 33 33 32 31 31 30 31 31 32 33 33 34 35 36 37 38
28 28 30 30 27 26 26 23 22 23 23 26 30 32 35 36 38 39 34 28 23 19 23 32 34 30 30 33 30 26 28 30 30 29 27 25 22 21 26 30 30 28 27 30 35 37 37 36 35 34 35 35 35 35 35 35 34 34 35 36 36 36 36 35 34 33 32 31 31 32 32 32 31 31 30 31 32 33 34 35 36 37 38 38 39 39
32 34 35 36 36 37 37 35 33 33 33 34 33 34 36 36 39 42 37 33 33 26 23 32 35 31 34 37 33 30 31 32 31 28 24 24 28 33 36 34 31 30 30 33 35 35 34 34 34 34 33 33 34 34 34 34 34 34 35 36 36 36 35 34 33 31 30 30 30 31 31 31 31 31 32 33 34 35 36 37 38 39 39 39 40 40
34 36 39 39 39 40 40 38 39 39 38 38 38 37 36 34 35 38 37 38 38 32 30 35 35 33 38 39 35 34 34 33 32 31 32 36 40 41 39 36 34 33 31 31 31 31 32 33 33 33 32 33 34 34 34 34 34 35 36 36 36 35 34 32 31 30 29 29 30 30 31 31 32 33 34 35 36 38 38 39 40 40 40 40 40 41
33 35 37 37 37 38 37 36 37 38 38 40 41 40 38 35 35 37 39 40 38 36 39 40 37 39 43 42 41 40 39 38 38 39 42 44 42 40 38 36 34 31 28 28 29 31 33 33 33 33 33 34 35 35 35 36 37 37 37 36 35 33 32 31 30 29 29 29 30 31 33 35 36 37 37 37 38 39 39 40 40 40 40 40 41 41
35 33 31 32 33 32 34 34 33 34 36 38 40 41 39 38 39 42 43 41 39 41 43 42 43 47 46 43 43 43 41 41 41 42 43 42 39 37 35 33 32 31 30 29 30 32 33 33 34 35 35 36 37 37 39 40 40 38 37 35 33 31 30 30 30 30 30 31 33 36 37 39 39 38 37 37 37 38 38 38 39 39 39 40 40 41
36 33 30 28 26 28 33 32 30 34 35 38 45 47 43 44 47 48 45 43 44 46 45 42 45 47 42 38 39 38 37 38 39 38 38 36 34 33 33 33 33 33 33 32 32 33 34 34 35 36 37 38 39 41 42 42 40 37 35 32 30 29 30 31 32 32 34 36 38 40 40 40 38 37 36 36 36 36 37 38 38 39 39 40 40 41
36 34 33 29 22 23 29 30 30 30 26 32 46 50 46 47 49 48 47 46 46 45 42 41 42 42 37 34 34 34 33 33 33 32 32 32 33 33 33 34 35 34 34 34 34 35 35 36 37 37 39 40 42 43 41 38 36 33 31 29 29 30 32 33 35 36 38 40 41 41 40 38 36 35 35 35 36 37 37 38 39 39 40 40 41 42
32 30 30 28 22 19 24 29 27 19 15 28 42 43 39 39 39 40 42 43 41 40 40 40 40 37 34 31 31 31 30 29 30 31 32 33 33 34 35 35 35 35 35 36 36 37 37 38 38 39 41 42 41 40 36 33 31 30 29 29 30 32 34 36 38 40 40 41 40 39 37 36 35 35 36 37 38 38 39 39 40 40 41 41 42 42
29 28 27 27 24 18 20 23 15 9 20 37 42 40 39 36 34 36 39 38 37 37 39 39 37 34 32 30 29 29 28 29 30 31 32 33 33 34 35 35 35 35 36 36 37 38 38 38 39 40 40 39 37 34 32 30 29 28 29 31 32 35 37 38 39 39 39 38 37 36 35 35 36 36 37 39 40 40 41 41 41 42 42 42 42 43
29 28 26 26 25 18 15 18 14 14 28 40 41 41 43 40 37 39 40 40 40 40 40 37 33 30 28 26 27 27 27 30 31 32 34 33 32 32 32 32 33 34 36 37 37 38 38 39 40 39 37 35 34 33 31 30 29 30 32 34 36 37 38 37 37 37 36 36 35 35 35 36 37 38 39 40 41 42 42 42 42 42 42 43 43 43
28 28 27 26 25 21 17 19 23 25 30 40 46 45 43 43 41 39 38 39 39 37 36 32 27 26 26 24 25 27 28 30 32 33 33 30 29 29 29 31 33 34 35 36 37 38 38 38 38 36 34 33 33 32 31 31 32 35 36 37 37 36 35 35 34 34 34 34 34 35 36 37 38 39 40 41 42 43 43 43 43 43 43 43 43 43
29 29 29 26 24 25 23 18 15 14 21 38 48 45 43 43 38 31 30 35 36 34 33 30 25 24 23 22 24 26 26 29 32 32 28 26 27 28 29 31 33 34 35 37 37 37 36 35 35 34 33 33 33 33 34 35 37 37 37 35 34 32 32 32 32 32 33 34 35 36 38 39 39 40 41 42 43 43 43 43 43 43 43 43 43 43
30 30 31 29 24 26 25 17 10 13 23 38 44 42 41 39 33 25 22 27 35 34 30 26 22 20 21 21 23 25 26 30 33 30 25 24 27 29 31 32 34 34 35 35 34 34 34 33 33 32 32 33 33 34 35 35 35 34 33 32 31 30 30 31 31 32 33 34 36 37 39 40 41 41 42 43 44 44 44 44 43 43 43 43 43 44
33 32 31 31 30 31 30 21 17 23 32 40 42 41 39 36 29 17 10 17 29 29 25 24 22 22 25 25 26 27 29 31 32 29 25 28 31 31 31 31 32 32 32 32 33 33 33 32 31 30 31 32 32 32 32 31 31 31 30 30 30 30 30 31 32 33 34 35 37 38 40 41 42 43 43 44 44 44 43 43 43 42 42 42 43 44
33 35 34 36 38 38 34 27 24 32 42 46 45 44 40 31 21 16 19 26 30 27 25 26 26 28 29 29 29 31 31 31 30 29 29 29 30 30 29 29 30 31 32 32 32 32 31 31 31 31 32 31 31 30 29 29 29 29 30 30 30 31 31 32 33 34 35 36 38 39 41 42 43 43 44 44 44 43 43 42 42 41 41 41 42 43
29 30 30 36 38 38 37 31 24 31 44 47 43 42 38 30 25 29 35 34 28 25 26 28 30 32 32 31 32 33 32 31 30 30 29 28 28 29 29 29 31 31 32 32 33 32 32 32 33 33 32 31 30 29 28 28 29 30 30 31 31 32 32 33 34 35 36 37 39 40 41 42 43 44 44 44 44 43 42 41 40 40 40 41 42 44
28 23 23 31 33 30 29 23 16 24 38 42 38 35 32 29 29 30 29 26 25 28 29 30 33 33 31 31 31 31 31 31 30 29 29 28 28 29 30 31 32 32 33 33 33 33 34 34 34 34 33 32 30 29 29 29 30 31 32 32 33 33 33 34 35 36 37 38 39 41 42 42 43 44 44 45 44 43 41 40 39 39 40 41 43 45
28 27 27 31 30 25 24 24 25 32 37 34 29 25 22 23 25 24 23 25 28 30 31 32 33 31 29 29 29 29 31 32 31 30 30 29 30 30 31 33 33 33 33 34 34 35 35 35 34 34 33 32 31 31 31 32 33 33 33 34 34 34 35 35 36 37 38 39 40 41 42 43 44 44 45 44 43 41 39 38 37 38 40 42 44 46
30 33 34 35 35 32 32 35 37 36 34 30 27 24 22 24 26 26 27 29 29 30 30 30 29 27 27 28 29 31 33 33 32 32 31 31 32 32 33 33 33 33 33 33 34 35 35 34 34 33 33 32 31 32 33 34 35 35 35 35 35 35 36 36 37 37 38 39 40 41 43 43 44 45 44 43 41 39 37 36 37 39 41 44 45 47
31 33 34 36 37 36 38 40 39 37 35 33 29 25 25 27 28 28 30 30 29 28 26 24 25 26 27 30 33 35 35 34 33 33 33 32 33 33 34 34 33 33 33 33 35 35 35 35 35 34 34 33 33 34 35 36 37 36 36 36 36 37 37 38 38 38 39 39 41 42 43 43 44 44 43 41 38 37 36 37 39 40 43 45 46 48
32 33 35 37 37 35 37 40 37 34 32 30 27 27 28 28 28 28 28 27 26 24 22 22 24 26 29 32 34 34 34 34 34 34 33 32 33 34 34 33 33 33 33 34 35 35 35 35 35 35 36 36 36 36 37 37 38 37 37 37 37 38 38 38 38 39 39 40 41 41 42 42 42 41 40 38 36 35 36 38 40 42 44 46 47 49
32 32 35 38 39 39 40 39 35 30 30 30 30 31 29 26 25 25 25 25 24 23 24 25 26 28 31 33 34 34 34 34 34 34 33 33 35 35 34 33 33 33 33 34 35 35 36 37 37 37 38 38 38 38 38 38 38 38 38 39 39 39 39 39 39 39 39 39 40 40 40 39 38 37 36 35 35 36 38 40 42 44 45 47 49 50
32 34 37 39 39 40 41 40 37 35 34 33 32 31 26 23 23 24 24 25 25 26 27 28 29 31 33 34 35 36 35 35 35 34 34 34 36 37 35 33 32 31 33 34 36 37 38 39 39 39 40 40 40 40 39 39 39 39 40 40 40 40 40 40 39 39 39 39 38 38 37 36 35 35 34 35 36 38 40 42 44 45 46 47 49 51
36 39 41 41 42 44 43 39 35 34 34 32 29 26 23 22 23 24 25 26 27 29 30 31 32 33 35 36 37 37 37 38 38 37 35 36 38 38 36 33 31 32 34 35 37 39 40 40 41 41 41 41 41 41 41 40 40 40 40 40 41 41 41 40 39 38 38 38 37 36 35 34 34 34 35 36 38 40 41 43 45 46 47 48 50 51
40 42 43 44 45 46 42 38 35 35 35 31 25 22 23 23 25 26 27 28 30 30 31 31 33 34 35 35 36 37 39 39 39 39 38 38 39 40 38 34 33 34 35 37 39 41 42 42 42 43 42 42 42 41 41 41 41 41 41 41 41 41 40 40 39 38 37 36 35 34 34 34 34 36 37 39 41 42 43 44 45 46 48 49 51 51
Wind_Direction
256 252 251 258 267 275 281 282 281 280 273 268 272 276 279 280 280 284 286 284 278 276 275 275 279 281 279 277 274 271 268 266 269 274 279 283 285 286 284 281 293 308 311 306 299 298 302 308 315 321 323 313 278 250 239 231 227 227 233 243 263 308 317 329 343 344 338 329 322 317 313 311 309 308 305 303 300 298 297 296 297 297 298 298 297 296
258 255 259 269 276 281 279 275 272 268 266 268 271 273 274 274 278 283 285 281 277 276 278 279 282 284 282 275 264 261 263 265 271 277 281 283 283 284 282 276 283 298 306 306 302 301 304 308 311 312 311 292 254 240 236 233 238 247 257 276 294 307 317 329 339 343 345 342 338 333 326 322 318 316 315 314 315 314 313 311 311 311 310 310 309 308
258 261 269 278 279 275 269 263 261 261 262 264 266 268 270 273 279 283 283 283 280 279 281 283 284 283 277 270 261 257 261 267 274 279 281 280 279 281 280 277 281 292 301 304 302 300 301 302 301 298 289 262 242 238 237 240 253 267 282 297 308 314 323 331 336 340 344 343 340 337 333 330 326 321 317 316 317 317 317 317 317 317 316 316 316 316
258 266 276 276 265 259 256 254 255 256 257 258 261 264 267 273 279 282 284 283 281 281 283 285 286 281 270 264 260 259 264 268 273 276 278 277 275 274 275 276 280 288 296 300 300 297 295 292 288 283 268 248 239 238 240 247 262 279 294 306 313 321 328 332 336 339 340 340 339 336 333 331 330 327 324 322 322 321 320 319 318 316 314 314 313 313
261 268 269 260 255 253 253 253 253 253 253 256 259 261 265 271 275 280 283 281 281 282 282 285 288 282 271 264 262 260 262 264 268 277 281 278 272 269 268 271 276 284 292 296 297 294 288 283 278 272 259 246 239 241 245 254 265 277 290 303 311 317 323 326 329 330 330 336 337 331 329 328 327 326 325 325 325 323 320 318 316 313 311 310 308 308
264 266 262 256 254 252 252 252 250 249 251 255 259 260 263 268 272 277 280 282 285 286 283 285 291 284 271 263 261 261 258 262 273 282 283 277 268 265 265 267 272 280 287 292 294 289 280 274 268 262 253 244 240 242 248 256 266 274 283 293 301 305 309 312 312 314 317 322 322 321 323 324 324 325 325 325 323 321 319 317 315 313 310 308 306 305
264 263 256 251 247 245 244 245 244 242 245 252 255 258 259 264 270 273 275 277 279 280 281 280 281 282 275 254 252 265 267 271 281 285 282 274 266 262 263 267 271 277 283 287 288 281 272 266 259 255 250 243 241 243 247 254 263 271 279 286 291 294 296 296 295 299 303 308 313 318 320 320 321 322 321 321 320 318 317 316 315 314 312 310 307 305
267 264 253 248 243 240 239 242 243 236 239 246 251 257 259 264 269 269 273 272 269 271 268 263 269 278 276 254 248 261 266 274 280 280 276 270 265 263 264 267 272 277 281 283 279 271 264 260 255 253 248 244 242 243 247 252 259 266 273 280 282 283 283 281 281 282 286 295 305 311 315 317 318 317 317 317 317 316 315 315 315 315 313 311 308 306
266 261 251 245 237 238 241 244 242 233 237 245 250 257 260 264 264 264 273 272 275 276 263 254 261 269 275 265 250 241 254 273 278 269 263 262 264 265 266 270 274 277 279 276 268 261 257 254 252 251 247 244 244 244 246 251 256 263 268 272 273 272 269 266 265 266 272 285 298 308 313 317 317 316 315 314 314 314 313 314 314 313 312 311 309 308
255 252 249 241 235 242 245 236 229 228 236 243 247 254 257 261 262 264 269 268 276 274 249 248 251 251 276 274 250 233 255 275 271 253 251 254 258 264 268 272 275 275 272 266 259 254 251 250 249 248 245 244 244 245 247 251 256 263 268 269 268 266 264 260 258 261 272 286 297 306 310 313 314 314 314 313 313 313 312 311 311 310 309 309 308 307
245 246 244 240 239 243 238 226 221 222 232 236 240 248 254 262 262 262 266 268 280 273 246 257 256 246 268 283 255 243 256 271 248 234 237 242 248 259 267 270 271 269 264 258 255 251 249 248 248 247 244 243 243 245 248 254 261 266 270 270 269 266 263 261 264 271 282 292 300 307 310 312 314 314 314 314 314 313 311 310 308 307 305 304 303 303
242 241 242 243 244 243 239 232 225 224 230 232 235 239 244 257 262 263 265 259 258 260 264 280 262 239 235 249 275 271 272 269 235 216 212 218 237 257 264 267 266 263 259 256 254 251 249 248 247 245 242 241 242 244 249 256 263 270 273 273 270 266 263 265 272 280 287 296 303 310 313 314 314 314 313 312 311 310 309 307 305 304 302 299 298 299
249 246 243 243 242 240 239 236 230 227 230 231 229 225 222 242 287 264 254 236 241 251 265 270 247 231 241 253 264 268 272 268 236 219 213 214 250 270 268 266 263 259 257 256 255 253 251 248 245 243 241 241 242 246 252 258 266 271 273 272 269 267 268 273 279 286 294 302 309 314 316 316 315 313 312 311 309 308 307 306 304 302 300 297 296 296
255 255 246 241 239 235 232 231 229 228 229 230 227 219 208 177 77 257 252 302 269 263 265 256 238 239 253 261 264 260 261 257 244 239 236 244 266 273 266 259 258 258 259 258 256 253 249 246 244 242 242 243 246 250 257 263 268 271 271 271 271 274 279 284 291 297 303 309 313 315 316 316 316 315 314 313 312 311 310 309 307 303 299 295 292 291
246 255 249 241 239 235 233 233 233 236 239 240 237 230 226 216 203 224 223 211 252 278 266 225 212 236 252 264 269 262 258 254 250 250 249 254 262 262 256 252 256 263 262 260 256 250 247 244 243 243 243 246 250 256 263 268 271 271 272 275 280 285 290 294 298 301 305 308 311 313 313 314 314 315 315 315 315 314 313 312 310 307 304 299 294 290
239 250 253 247 242 237 235 234 233 235 240 243 236 230 231 233 233 242 255 251 259 305 261 208 216 249 259 267 269 266 266 262 255 251 244 247 254 257 261 264 266 266 262 258 254 249 246 245 244 245 247 251 256 262 266 269 272 274 279 285 290 294 297 299 301 303 306 309 311 312 313 313 313 312 313 314 314 315 314 313 312 310 308 305 302 298
239 250 253 248 243 234 227 227 226 228 232 232 228 229 235 240 240 242 259 266 263 278 261 239 245 258 264 269 268 264 265 260 252 249 244 249 264 269 271 271 267 263 259 254 252 249 248 247 247 249 252 256 261 264 267 270 276 281 287 293 296 299 301 302 303 305 308 310 312 312 313 313 313 312 312 311 311 311 311 311 311 310 309 308 307 305
245 252 253 244 239 235 230 225 221 223 227 228 230 238 243 243 241 236 240 270 250 252 259 246 253 260 259 264 268 268 267 262 253 252 255 266 276 274 268 264 258 255 254 253 252 251 250 249 250 253 256 260 263 266 270 276 283 289 293 297 299 301 302 304 305 307 309 310 311 311 312 312 312 311 310 308 307 306 306 306 307 308 308 307 306 304
244 251 255 243 232 232 229 224 219 220 226 233 240 245 242 235 229 219 212 237 239 230 261 247 253 261 258 259 268 273 274 273 266 263 271 277 276 269 262 256 252 252 254 254 253 251 250 250 252 255 259 263 267 272 278 283 288 291 294 297 299 301 302 304 305 306 307 308 308 309 309 310 309 308 307 306 304 304 303 303 302 302 301 300 299 299
241 247 253 239 230 229 225 223 224 226 229 234 238 240 240 239 231 220 218 226 229 221 252 248 243 259 264 266 271 274 275 275 274 277 281 277 265 258 255 256 258 260 258 254 250 248 248 250 252 257 262 268 273 278 284 288 291 294 297 299 301 302 303 304 304 305 305 306 307 308 308 308 306 305 304 303 302 301 299 297 296 295 294 294 294 294
237 238 243 238 224 220 224 229 235 239 240 240 238 236 238 237 235 235 235 233 231 216 228 241 239 257 264 271 277 276 276 276 278 282 281 270 262 262 265 269 268 263 254 247 244 244 246 249 254 260 266 272 278 284 288 291 294 297 299 300 301 302 302 302 302 303 305 306 307 307 306 306 305 304 302 301 299 297 295 293 291 291 291 291 292 292
230 233 240 240 228 225 234 241 245 246 245 246 246 246 247 244 237 236 241 237 234 228 225 235 256 260 262 269 275 276 277 277 277 280 278 275 275 274 272 269 262 254 246 241 242 244 246 251 259 266 272 278 283 286 289 290 292 293 295 296 296 296 297 297 298 299 300 301 302 303 302 302 301 300 299 298 297 295 293 292 291 290 290 290 291 292
233 236 241 244 244 245 248 246 244 244 243 243 245 247 250 248 239 232 234 241 237 234 241 245 259 262 263 266 271 274 275 275 277 278 278 277 275 273 267 259 249 242 241 241 244 247 253 262 270 276 281 284 286 287 288 289 290 291 292 293 294 294 295 296 297 298 300 301 301 300 299 298 298 297 298 297 297 296 294 293 292 291 291 291 291 292
234 235 238 245 251 253 250 245 243 242 242 240 240 242 243 244 242 240 242 247 244 238 241 239 253 261 265 269 271 272 272 273 277 276 274 273 271 265 254 242 237 241 248 252 257 263 271 278 282 285 287 289 290 290 291 291 292 292 293 294 296 297 298 298 299 300 301 300 299 297 296 296 296 296 297 297 296 296 295 294 293 293 292 291 291 291
233 231 230 235 251 255 248 244 239 236 238 238 239 241 242 244 245 244 244 246 247 244 241 238 254 259 263 267 267 267 270 274 275 271 270 270 262 250 239 242 255 267 271 272 274 280 284 286 288 290 291 292 292 292 293 293 294 295 296 298 299 299 299 299 299 298 297 296 294 294 294 294 295 295 295 295 295 294 294 294 293 293 292 292 292 291
235 230 226 224 225 236 237 233 233 236 238 240 242 244 245 245 244 242 243 241 238 240 238 240 252 257 257 262 265 269 276 277 274 271 270 262 248 241 255 272 282 284 279 277 281 284 286 288 290 291 292 292 291 291 292 292 294 296 297 299 299 298 297 296 295 294 292 291 290 290 291 292 292 293 293 293 293 293 293 293 292 292 292 292 291 291
236 233 232 232 233 239 245 248 251 254 253 250 251 253 252 250 247 245 243 239 240 242 238 243 253 258 261 267 270 271 274 277 275 270 261 249 247 267 283 286 287 283 274 273 280 283 285 287 289 289 289 288 287 288 289 291 294 296 297 297 296 295 294 292 290 288 287 286 286 287 288 289 290 291 292 293 293 293 293 292 292 291 291 291 290 290
238 238 239 240 242 247 252 257 261 264 265 264 263 262 259 256 251 247 245 247 251 248 246 253 258 260 265 269 270 271 274 277 272 263 253 253 266 281 286 284 282 278 272 271 276 281 284 285 285 284 283 283 284 286 289 292 294 295 295 294 293 292 289 287 285 284 283 283 283 284 285 287 289 291 292 292 292 291 291 290 290 289 289 289 289 288
241 244 246 248 251 254 257 261 263 264 265 264 262 260 255 250 249 252 255 258 257 251 255 263 263 263 269 272 271 272 273 271 268 265 268 273 277 280 281 279 277 276 272 269 271 276 278 279 280 280 280 281 284 287 291 293 294 293 293 291 289 287 285 283 282 281 280 281 281 283 285 288 290 291 292 291 290 289 288 287 287 287 287 287 288 288
243 246 250 252 254 257 259 260 261 260 259 259 259 258 254 252 256 261 263 263 260 256 260 265 264 264 269 271 271 271 272 272 272 273 273 275 277 277 277 277 277 276 271 266 266 269 272 274 276 277 278 281 285 288 291 292 292 292 290 288 285 284 281 280 279 278 279 280 281 284 286 289 290 290 289 288 286 285 285 285 285 286 286 286 287 288
242 244 247 250 252 255 257 256 255 256 256 257 258 257 256 259 262 262 261 261 260 261 264 265 264 265 269 273 273 273 275 276 275 273 272 273 274 275 275 276 276 275 272 268 266 268 270 273 275 276 279 282 285 287 289 290 290 289 287 285 283 280 278 277 277 278 279 280 283 285 287 289 289 289 287 285 284 284 284 285 286 286 287 288 288 289
241 241 241 243 244 247 252 254 254 256 259 261 261 260 258 260 263 263 264 265 265 266 267 265 264 269 276 279 278 277 276 274 272 271 271 271 272 272 273 275 275 274 273 272 271 272 273 274 276 278 279 281 283 285 287 288 287 286 285 283 280 277 276 277 278 280 281 284 286 287 289 289 289 289 288 287 287 287 288 288 289 290 291 292 292 292
239 238 236 237 237 243 251 255 255 257 261 260 259 260 262 262 264 266 266 267 268 267 266 266 269 277 283 282 280 279 276 274 272 272 272 272 272 274 275 276 275 275 275 275 276 276 276 276 277 277 278 280 282 284 285 285 285 284 283 280 276 275 276 279 282 284 286 288 289 290 291 292 292 292 292 292 293 293 293 294 295 296 296 296 296 296
235 236 238 240 242 245 250 253 252 248 248 255 258 262 265 264 264 265 265 267 269 268 269 271 276 280 282 281 279 277 274 272 271 271 272 273 274 275 275 275 275 276 277 277 277 277 277 277 277 277 279 282 283 284 284 284 284 282 279 275 275 277 281 284 287 289 290 291 291 292 293 294 295 296 297 297 297 298 298 299 299 299 299 299 299 298
240 241 242 241 240 239 235 233 233 228 243 256 264 267 267 266 266 266 266 267 269 272 274 276 278 280 281 280 277 275 273 273 273 273 273 273 273 273 274 274 275 276 277 276 276 276 276 277 278 280 282 283 284 285 285 284 282 279 277 277 280 283 285 288 289 289 290 291 292 293 294 295 297 298 299 299 299 300 301 301 301 301 301 300 300 299
244 241 239 236 234 232 211 201 216 252 256 260 267 267 267 269 269 269 270 271 273 277 279 279 280 281 280 277 275 275 274 274 274 275 274 273 273 274 274 274 274 274 274 274 275 275 276 277 279 281 282 283 284 285 284 282 279 278 280 282 284 286 287 287 287 287 288 289 291 293 294 296 297 298 298 299 300 301 301 301 302 302 301 301 300 299
242 240 240 236 231 230 218 214 237 258 263 263 265 266 267 270 271 272 275 277 279 281 280 280 282 283 281 278 275 274 274 273 274 275 276 276 276 275 273 271 270 270 271 272 274 275 277 278 279 280 282 284 284 283 281 280 279 281 284 285 285 285 285 284 284 285 287 289 291 293 294 296 297 297 298 299 300 301 302 302 303 302 301 301 299 298
238 238 240 238 232 232 233 235 245 253 258 262 265 268 271 272 273 275 275 278 281 281 280 283 286 284 280 275 271 272 273 273 276 280 280 277 274 271 269 268 268 270 272 273 275 277 278 279 280 282 283 283 282 281 280 280 282 283 284 284 283 283 282 282 284 286 287 289 291 293 294 296 297 298 299 300 301 302 302 303 303 302 301 300 299 298
235 237 239 237 233 230 229 230 233 236 251 261 266 271 273 273 276 276 274 277 279 280 283 288 289 284 279 276 277 279 277 276 283 289 284 272 268 269 269 271 272 274 275 276 277 278 279 281 283 284 284 283 282 281 281 281 282 282 282 282 282 282 283 285 286 287 288 290 291 293 295 297 299 300 301 301 301 301 302 302 302 301 300 299 299 299
232 235 233 229 231 233 231 234 240 243 252 260 263 265 268 271 275 273 260 272 279 283 288 292 291 288 286 286 287 285 283 284 289 290 281 272 272 273 273 275 276 276 277 277 278 280 282 285 286 286 286 285 284 283 282 281 281 281 282 283 284 285 287 287 288 288 289 290 292 294 296 298 300 300 301 301 301 301 302 302 301 300 299 298 299 300
229 230 229 229 234 236 235 239 246 248 254 258 260 263 266 266 262 249 252 270 282 287 290 290 289 290 291 291 290 289 288 288 286 283 279 277 277 277 277 278 278 279 280 282 283 285 287 288 288 287 287 286 286 285 284 283 283 285 286 287 287 288 288 288 289 289 290 291 293 295 297 298 299 300 300 300 301 301 302 301 300 299 298 298 299 301
227 226 225 229 234 236 239 244 250 255 260 261 259 259 259 255 251 259 270 280 286 285 284 284 285 288 290 289 289 288 287 284 282 281 280 278 278 279 281 281 281 283 285 286 286 288 288 288 289 289 290 291 290 289 288 287 287 289 290 290 289 290 290 290 290 291 292 293 294 295 297 297 298 298 299 300 300 300 300 299 298 298 298 299 301 302
237 232 228 232 234 233 233 236 243 259 266 267 261 256 255 256 263 273 281 283 281 281 282 283 284 285 286 286 286 285 284 283 282 281 280 279 279 280 281 282 284 285 285 285 286 288 288 290 291 293 294 295 294 294 292 290 290 291 292 292 291 291 291 291 292 292 293 293 294 295 296 297 298 298 299 300 300 300 299 299 298 298 299 300 302 303
239 238 241 243 240 228 220 230 249 265 273 276 270 264 265 269 274 279 278 276 280 283 284 283 284 284 285 285 284 283 283 283 283 282 281 280 280 281 282 283 284 284 284 284 285 286 288 290 293 294 295 297 297 297 296 295 294 293 293 292 292 292 291 291 292 292 293 293 294 295 296 298 299 299 300 300 299 299 299 298 298 299 300 302 303 304
246 251 256 255 252 247 248 257 266 271 273 273 270 271 274 274 276 278 279 281 284 284 283 283 284 285 285 283 282 281 282 282 282 281 280 279 280 282 283 283 283 283 282 283 284 285 288 291 293 295 297 299 300 300 299 297 296 294 294 293 293 292 291 292 292 293 293 294 295 297 298 299 300 300 300 299 299 298 298 298 298 300 302 303 305 305
256 259 260 259 258 258 262 265 266 267 268 270 271 273 274 275 279 283 284 286 286 285 284 283 280 280 279 278 277 278 278 279 279 277 276 277 280 282 282 282 282 281 281 282 284 287 290 292 294 297 299 300 301 301 299 297 295 294 294 294 293 292 292 292 293 293 294 295 296 297 299 300 301 300 300 298 298 298 298 298 300 302 304 305 306 307
257 257 257 258 258 258 260 263 265 266 268 271 272 273 277 282 285 286 285 284 283 282 280 276 272 272 272 271 273 274 274 275 274 273 273 276 279 280 281 282 282 282 283 284 286 289 292 294 296 297 298 299 300 299 298 297 295 294 294 294 293 292 292 292 293 293 294 295 296 298 299 300 301 300 299 298 298 298 298 300 302 304 305 307 307 308
258 257 256 256 257 257 260 264 267 267 268 270 273 278 284 287 286 283 281 278 275 273 273 271 269 268 268 270 271 272 271 270 269 269 272 276 278 280 282 283 284 284 284 285 287 290 293 294 296 296 296 297 298 298 297 296 295 294 294 294 293 292 292 292 292 292 293 295 297 298 299 300 300 300 298 298 297 297 299 301 303 305 307 308 309 310
257 257 256 257 259 259 259 261 264 266 270 275 280 284 286 284 280 278 277 274 271 271 271 270 268 268 268 269 269 269 267 266 266 267 271 274 276 278 280 282 283 281 281 283 287 290 292 293 293 294 295 296 297 297 296 295 294 293 293 293 292 291 290 290 291 292 294 295 297 298 298 299 299 299 297 297 297 298 300 302 304 306 307 308 310 311
254 256 257 258 258 260 263 267 271 272 276 282 284 284 282 280 278 276 271 268 269 269 269 269 269 270 271 271 270 269 268 267 266 265 267 270 273 276 278 280 279 277 278 281 285 287 289 290 291 292 294 295 296 297 296 295 293 292 292 290 289 289 289 289 290 292 293 294 295 296 297 298 298 297 296 296 297 298 300 302 304 306 307 308 310 311
257 260 262 262 263 268 273 279 280 279 282 284 282 277 276 277 275 270 266 267 270 272 272 272 272 273 273 272 271 269 269 269 268 267 267 269 270 273 276 278 276 276 278 280 282 284 286 287 289 290 292 294 296 296 295 294 292 291 289 288 287 287 288 288 289 290 291 292 293 294 295 296 296 295 295 296 298 299 300 302 304 306 307 309 310 311
Height
3148 3147 3147 3147 3147 3148 3149 3149 3148 3148 3148 3147 3147 3146 3146 3145 3144 3145 3146 3147 3146 3143 3143 3144 3143 3143 3143 3144 3142 3140 3139 3139 3139 3139 3138 3138 3138 3138 3138 3138 3138 3137 3137 3137 3137 3136 3136 3136 3135 3135 3134 3134 3134 3134 3134 3133 3132 3132 3131 3131 3130 3130 3130 3129 3129 3129 3129 3129 3128 3128 3127 3126 3126 3125 3124 3124 3124 3124 3123 3123 3123 3123 3123 3123 3123 3123
3144 3143 3143 3145 3147 3147 3146 3146 3146 3145 3145 3144 3144 3143 3143 3141 3140 3142 3144 3144 3143 3141 3139 3140 3140 3140 3140 3140 3139 3138 3137 3137 3137 3138 3137 3137 3136 3136 3137 3136 3136 3135 3135 3135 3135 3135 3135 3134 3134 3134 3133 3133 3133 3133 3133 3132 3131 3131 3130 3130 3129 3129 3128 3128 3128 3128 3127 3127 3127 3127 3126 3126 3125 3124 3123 3123 3122 3122 3122 3121 3121 3121 3121 3120 3120 3120
3140 3139 3141 3144 3144 3144 3143 3143 3142 3142 3142 3141 3141 3140 3139 3139 3138 3139 3141 3141 3140 3138 3137 3137 3136 3136 3137 3136 3136 3136 3135 3135 3135 3136 3136 3135 3135 3134 3134 3134 3134 3133 3133 3133 3133 3133 3133 3133 3133 3133 3132 3132 3132 3132 3131 3131 3130 3130 3130 3129 3128 3128 3127 3127 3126 3126 3126 3126 3126 3125 3125 3124 3124 3123 3123 3122 3122 3122 3121 3121 3121 3120 3119 3119 3118 3118
3136 3137 3141 3141 3140 3140 3140 3140 3140 3139 3138 3138 3138 3138 3136 3137 3138 3137 3138 3139 3138 3136 3135 3135 3133 3133 3134 3132 3132 3133 3132 3133 3134 3134 3134 3134 3133 3133 3132 3132 3132 3131 3132 3131 3131 3131 3131 3131 3131 3131 3131 3131 3130 3130 3130 3129 3129 3129 3128 3128 3128 3127 3126 3126 3125 3125 3125 3125 3124 3124 3124 3123 3123 3122 3122 3122 3121 3121 3121 3121 3121 3120 3119 3119 3118 3117
3133 3136 3138 3137 3137 3137 3137 3138 3137 3136 3135 3136 3136 3135 3134 3136 3136 3135 3135 3136 3135 3134 3133 3133 3130 3128 3130 3129 3129 3130 3130 3130 3131 3132 3132 3132 3132 3131 3131 3130 3130 3130 3130 3130 3130 3130 3129 3130 3130 3130 3130 3129 3129 3129 3128 3128 3128 3127 3127 3127 3126 3126 3125 3125 3124 3124 3123 3123 3123 3123 3123 3122 3122 3121 3120 3120 3120 3120 3120 3120 3120 3119 3119 3118 3117 3117
3129 3133 3133 3133 3134 3134 3134 3134 3134 3133 3133 3134 3133 3132 3133 3134 3134 3134 3133 3133 3132 3131 3131 3131 3129 3124 3124 3126 3126 3127 3128 3128 3129 3129 3129 3129 3129 3129 3129 3129 3129 3128 3128 3128 3128 3128 3128 3128 3128 3128 3128 3128 3128 3127 3127 3127 3126 3126 3125 3125 3125 3125 3124 3124 3123 3123 3122 3122 3122 3122 3122 3121 3121 3120 3119 3119 3118 3118 3118 3118 3118 3118 3117 3117 3116 3116
3126 3129 3130 3130 3130 3130 3131 3130 3130 3131 3132 3131 3130 3130 3132 3132 3132 3132 3132 3131 3130 3130 3129 3130 3130 3123 3119 3122 3124 3125 3126 3126 3126 3125 3125 3125 3125 3126 3126 3126 3127 3127 3127 3127 3126 3126 3126 3126 3126 3126 3126 3126 3126 3126 3125 3125 3124 3124 3123 3123 3123 3123 3122 3122 3122 3121 3121 3120 3120 3120 3120 3120 3120 3119 3118 3117 3116 3116 3116 3116 3116 3115 3115 3115 3114 3114
3123 3126 3126 3126 3127 3127 3127 3127 3128 3129 3129 3128 3128 3129 3130 3130 3130 3130 3130 3130 3128 3128 3128 3128 3130 3123 3115 3117 3121 3122 3123 3123 3122 3122 3121 3121 3122 3123 3123 3124 3124 3124 3124 3124 3124 3124 3124 3124 3124 3124 3124 3124 3124 3124 3123 3123 3122 3122 3121 3121 3121 3120 3120 3120 3120 3120 3119 3119 3119 3119 3119 3119 3118 3117 3116 3115 3115 3114 3113 3113 3113 3113 3112 3112 3112 3111
3122 3124 3124 3124 3124 3124 3124 3125 3127 3128 3127 3127 3127 3128 3128 3128 3128 3128 3128 3128 3127 3126 3125 3125 3129 3124 3112 3111 3116 3117 3118 3119 3118 3118 3118 3118 3119 3120 3120 3121 3121 3121 3121 3122 3122 3122 3122 3122 3122 3122 3122 3122 3122 3122 3121 3121 3120 3119 3119 3119 3118 3118 3118 3118 3118 3118 3117 3117 3117 3117 3117 3116 3116 3115 3114 3113 3112 3112 3111 3110 3110 3109 3109 3109 3108 3108
3121 3121 3122 3122 3122 3122 3124 3125 3125 3126 3126 3126 3126 3126 3126 3126 3126 3126 3126 3126 3126 3123 3121 3123 3126 3124 3112 3106 3111 3114 3113 3114 3114 3114 3115 3116 3117 3117 3117 3117 3118 3118 3118 3119 3119 3120 3120 3120 3120 3120 3120 3120 3120 3120 3119 3119 3118 3117 3117 3117 3116 3116 3116 3116 3116 3116 3115 3115 3114 3114 3114 3114 3113 3112 3111 3110 3109 3109 3108 3107 3107 3106 3106 3105 3105 3104
3118 3119 3120 3120 3121 3121 3122 3123 3123 3124 3124 3124 3125 3124 3125 3124 3124 3125 3124 3125 3125 3119 3116 3119 3122 3123 3114 3104 3107 3110 3110 3111 3112 3112 3113 3114 3114 3115 3115 3115 3115 3115 3116 3116 3117 3117 3118 3118 3118 3118 3117 3117 3117 3117 3117 3117 3116 3116 3115 3115 3114 3114 3114 3114 3114 3114 3113 3113 3112 3112 3111 3111 3110 3109 3108 3107 3106 3106 3105 3104 3104 3103 3103 3102 3102 3101
3116 3117 3117 3118 3119 3120 3120 3121 3121 3122 3122 3123 3123 3123 3124 3123 3123 3123 3122 3123 3123 3116 3114 3117 3119 3121 3113 3104 3105 3107 3107 3109 3110 3110 3111 3112 3113 3113 3113 3112 3112 3113 3113 3114 3115 3115 3115 3115 3115 3115 3115 3114 3114 3114 3115 3114 3114 3114 3113 3113 3112 3112 3112 3112 3112 3112 3111 3111 3110 3110 3109 3108 3108 3107 3106 3105 3104 3103 3103 3102 3101 3101 3100 3099 3098 3098
3113 3114 3115 3116 3116 3117 3118 3119 3120 3120 3121 3121 3122 3122 3123 3123 3123 3122 3120 3121 3119 3114 3114 3116 3117 3115 3106 3101 3105 3106 3106 3108 3108 3109 3109 3110 3110 3111 3111 3110 3110 3110 3111 3111 3112 3112 3112 3112 3112 3112 3112 3112 3112 3112 3112 3112 3112 3112 3111 3111 3110 3110 3110 3110 3110 3109 3109 3108 3107 3106 3105 3105 3104 3104 3103 3102 3101 3100 3100 3099 3098 3098 3097 3096 3095 3094
3110 3110 3112 3113 3113 3114 3115 3116 3117 3117 3118 3119 3119 3120 3121 3122 3124 3122 3120 3120 3116 3112 3112 3114 3115 3109 3100 3099 3103 3103 3104 3106 3107 3108 3108 3108 3108 3108 3109 3108 3108 3108 3108 3109 3109 3109 3109 3109 3109 3109 3109 3109 3109 3109 3109 3109 3109 3109 3109 3108 3108 3107 3107 3107 3106 3105 3104 3103 3102 3101 3100 3100 3099 3098 3097 3096 3096 3095 3094 3094 3093 3093 3093 3093 3092 3091
3108 3107 3108 3109 3110 3111 3112 3113 3115 3116 3117 3117 3117 3119 3117 3117 3119 3117 3116 3116 3113 3111 3111 3111 3110 3103 3097 3098 3099 3099 3102 3104 3105 3105 3105 3105 3105 3105 3106 3106 3106 3106 3106 3106 3106 3106 3106 3106 3106 3107 3107 3107 3107 3107 3107 3106 3106 3106 3106 3105 3105 3104 3103 3103 3102 3101 3100 3099 3098 3098 3096 3095 3093 3092 3091 3089 3088 3087 3086 3086 3086 3086 3087 3087 3087 3086
3106 3105 3106 3107 3107 3109 3110 3111 3113 3114 3115 3115 3116 3116 3114 3114 3115 3114 3113 3112 3112 3112 3109 3107 3104 3098 3096 3096 3096 3098 3100 3101 3102 3103 3103 3103 3103 3103 3103 3103 3103 3103 3103 3103 3103 3103 3103 3104 3104 3104 3104 3104 3104 3104 3104 3103 3103 3103 3102 3101 3101 3100 3099 3099 3098 3097 3096 3095 3094 3093 3092 3090 3089 3088 3086 3084 3082 3080 3079 3079 3078 3079 3078 3079 3079 3078
3103 3102 3103 3105 3106 3107 3108 3109 3110 3111 3112 3113 3112 3111 3111 3113 3113 3113 3112 3110 3112 3111 3105 3100 3098 3095 3095 3093 3092 3096 3098 3098 3100 3100 3101 3101 3100 3100 3100 3100 3100 3100 3100 3100 3100 3101 3101 3101 3102 3101 3101 3101 3101 3101 3100 3100 3100 3099 3098 3097 3096 3096 3095 3094 3093 3092 3091 3090 3089 3087 3086 3085 3084 3083 3082 3080 3078 3076 3075 3073 3072 3072 3072 3071 3071 3070
3100 3100 3101 3103 3104 3105 3106 3107 3107 3108 3109 3110 3109 3109 3111 3112 3112 3112 3112 3110 3111 3109 3101 3096 3094 3093 3092 3088 3088 3093 3095 3096 3098 3098 3098 3098 3098 3098 3098 3097 3097 3097 3097 3098 3098 3098 3098 3098 3098 3098 3098 3098 3098 3098 3097 3097 3096 3095 3094 3093 3092 3091 3090 3090 3089 3087 3086 3085 3084 3083 3082 3081 3079 3078 3077 3076 3075 3074 3072 3070 3069 3068 3067 3066 3065 3064
3097 3098 3098 3100 3102 3103 3104 3104 3104 3105 3106 3107 3107 3108 3110 3109 3109 3110 3110 3108 3107 3104 3098 3093 3091 3089 3087 3085 3086 3090 3092 3093 3095 3095 3096 3095 3095 3095 3094 3095 3095 3095 3095 3095 3095 3095 3095 3095 3095 3095 3095 3095 3094 3094 3093 3093 3092 3091 3091 3090 3089 3088 3087 3086 3084 3083 3082 3081 3080 3079 3078 3078 3077 3075 3074 3073 3072 3070 3069 3068 3067 3066 3064 3063 3061 3060
3096 3096 3095 3096 3098 3099 3099 3100 3100 3102 3104 3104 3105 3106 3106 3106 3106 3105 3104 3101 3100 3098 3095 3092 3089 3085 3083 3083 3085 3088 3090 3091 3092 3092 3092 3092 3092 3092 3092 3092 3092 3093 3093 3092 3092 3093 3093 3092 3092 3092 3092 3091 3091 3090 3090 3089 3088 3087 3086 3085 3084 3083 3082 3081 3080 3079 3078 3077 3076 3075 3075 3074 3073 3072 3071 3069 3068 3067 3066 3065 3064 3063 3062 3060 3058 3057
3094 3094 3093 3093 3095 3095 3095 3095 3096 3098 3100 3101 3101 3102 3102 3103 3103 3101 3099 3096 3095 3094 3092 3090 3086 3082 3081 3082 3083 3085 3087 3088 3089 3089 3089 3090 3090 3090 3090 3091 3090 3090 3090 3090 3090 3090 3089 3089 3089 3089 3088 3088 3087 3087 3086 3085 3083 3082 3081 3080 3080 3079 3078 3077 3075 3074 3073 3072 3072 3071 3070 3069 3068 3067 3066 3065 3064 3063 3063 3062 3061 3059 3057 3055 3054 3052
3090 3090 3090 3090 3090 3090 3091 3092 3094 3095 3096 3097 3098 3098 3098 3099 3099 3098 3095 3091 3090 3088 3086 3085 3082 3079 3080 3081 3081 3083 3085 3085 3086 3087 3087 3087 3088 3088 3088 3088 3087 3087 3087 3087 3087 3086 3086 3086 3086 3085 3085 3085 3084 3083 3082 3081 3080 3079 3078 3077 3076 3075 3074 3073 3072 3071 3070 3069 3069 3067 3066 3065 3064 3063 3062 3061 3060 3059 3058 3057 3056 3054 3052 3051 3049 3048
3087 3087 3087 3086 3086 3087 3089 3090 3091 3092 3093 3094 3094 3094 3094 3094 3094 3093 3089 3085 3086 3084 3082 3083 3080 3076 3077 3080 3080 3081 3082 3083 3084 3084 3084 3085 3085 3085 3085 3085 3084 3084 3084 3084 3084 3083 3083 3083 3082 3082 3081 3081 3080 3079 3078 3077 3076 3075 3074 3073 3072 3071 3070 3069 3068 3067 3066 3065 3064 3063 3062 3061 3060 3059 3058 3056 3055 3054 3053 3051 3050 3049 3048 3046 3045 3043
3084 3084 3084 3084 3084 3085 3086 3087 3088 3089 3089 3089 3089 3089 3090 3089 3089 3088 3084 3083 3082 3080 3080 3082 3077 3072 3074 3077 3077 3077 3079 3080 3081 3081 3082 3082 3082 3082 3082 3081 3082 3082 3082 3081 3081 3080 3080 3079 3078 3078 3077 3076 3075 3074 3073 3072 3071 3070 3069 3068 3067 3066 3065 3064 3063 3062 3061 3060 3059 3058 3057 3056 3055 3054 3053 3052 3050 3049 3048 3047 3046 3045 3043 3043 3041 3040
3080 3080 3081 3082 3083 3083 3083 3083 3084 3084 3084 3084 3084 3085 3086 3086 3086 3084 3082 3081 3078 3075 3078 3079 3072 3068 3073 3074 3074 3075 3076 3077 3078 3078 3079 3080 3079 3078 3078 3078 3079 3079 3078 3077 3076 3076 3075 3074 3073 3072 3071 3071 3070 3069 3068 3067 3066 3065 3064 3063 3062 3061 3060 3059 3058 3057 3056 3055 3054 3053 3052 3051 3051 3050 3048 3047 3046 3045 3044 3043 3042 3041 3039 3038 3037 3036
3076 3076 3076 3077 3078 3077 3076 3077 3078 3079 3080 3081 3081 3082 3082 3082 3082 3080 3078 3077 3074 3072 3074 3072 3066 3066 3071 3071 3071 3073 3074 3075 3075 3075 3076 3076 3075 3074 3075 3075 3075 3075 3074 3073 3072 3071 3070 3069 3068 3067 3067 3066 3065 3064 3063 3062 3061 3060 3058 3057 3057 3056 3055 3054 3054 3053 3052 3051 3050 3049 3048 3047 3046 3045 3044 3043 3042 3041 3040 3038 3037 3036 3035 3034 3033 3031
3072 3071 3071 3071 3070 3069 3070 3072 3074 3076 3078 3078 3078 3079 3079 3078 3078 3077 3073 3070 3070 3070 3068 3065 3063 3065 3068 3069 3068 3070 3072 3072 3072 3072 3072 3071 3071 3071 3071 3071 3070 3070 3070 3069 3067 3066 3065 3065 3064 3063 3062 3061 3060 3059 3058 3057 3056 3055 3054 3053 3052 3052 3051 3050 3050 3049 3048 3047 3046 3045 3044 3043 3042 3041 3040 3039 3038 3036 3035 3034 3032 3031 3029 3028 3027 3025
3067 3065 3066 3066 3066 3067 3068 3071 3072 3073 3073 3074 3074 3074 3074 3073 3073 3071 3067 3066 3068 3066 3061 3061 3063 3063 3064 3066 3067 3067 3069 3069 3069 3069 3068 3068 3068 3067 3066 3066 3066 3066 3066 3064 3063 3062 3061 3060 3060 3059 3058 3057 3056 3055 3054 3053 3052 3051 3050 3049 3048 3048 3047 3046 3046 3045 3044 3043 3042 3041 3040 3039 3038 3037 3036 3034 3033 3031 3030 3029 3027 3026 3024 3023 3021 3020
3062 3060 3061 3062 3063 3064 3066 3068 3069 3069 3069 3069 3068 3068 3068 3068 3067 3065 3063 3063 3064 3061 3057 3059 3061 3059 3060 3063 3064 3065 3066 3065 3065 3066 3065 3064 3063 3062 3061 3061 3061 3061 3061 3060 3059 3058 3057 3056 3055 3055 3054 3052 3051 3050 3049 3048 3047 3046 3045 3045 3044 3043 3043 3042 3042 3041 3040 3039 3038 3037 3036 3035 3034 3032 3031 3030 3028 3027 3025 3024 3022 3021 3019 3018 3016 3015
3057 3056 3057 3058 3058 3060 3062 3063 3064 3065 3064 3063 3063 3063 3063 3063 3062 3061 3060 3059 3059 3056 3055 3057 3056 3054 3056 3059 3060 3062 3061 3061 3061 3062 3060 3058 3057 3057 3056 3056 3056 3056 3055 3055 3055 3054 3053 3052 3051 3051 3049 3048 3047 3046 3045 3044 3043 3042 3041 3041 3040 3039 3039 3038 3037 3037 3036 3035 3034 3033 3032 3031 3029 3028 3027 3025 3023 3022 3020 3019 3017 3016 3015 3013 3011 3009
3053 3052 3053 3054 3055 3056 3057 3058 3060 3060 3059 3058 3057 3057 3058 3058 3057 3055 3054 3055 3055 3052 3052 3053 3051 3049 3053 3056 3056 3057 3057 3056 3055 3055 3053 3052 3052 3051 3051 3051 3051 3050 3050 3050 3050 3049 3049 3048 3047 3046 3045 3044 3043 3042 3041 3040 3039 3038 3037 3037 3036 3035 3034 3034 3033 3033 3032 3031 3030 3028 3027 3026 3024 3023 3021 3020 3018 3017 3015 3014 3012 3011 3010 3008 3007 3005
3048 3048 3049 3051 3051 3050 3052 3054 3055 3056 3056 3053 3049 3049 3051 3053 3051 3049 3050 3051 3050 3047 3048 3049 3045 3044 3050 3053 3051 3051 3052 3050 3049 3048 3048 3047 3047 3046 3046 3046 3046 3045 3044 3044 3044 3044 3044 3043 3042 3042 3041 3040 3039 3038 3037 3036 3035 3034 3033 3033 3032 3031 3030 3029 3029 3028 3027 3026 3025 3023 3022 3020 3019 3017 3016 3014 3013 3011 3010 3009 3007 3006 3004 3003 3001 2999
3042 3043 3045 3047 3046 3045 3048 3050 3050 3054 3053 3044 3038 3041 3046 3047 3046 3045 3045 3045 3044 3043 3043 3042 3040 3042 3046 3047 3045 3045 3046 3044 3043 3043 3043 3042 3042 3042 3042 3041 3040 3040 3040 3039 3039 3039 3038 3038 3037 3037 3036 3035 3034 3033 3032 3031 3030 3029 3029 3029 3028 3027 3026 3025 3024 3023 3022 3020 3019 3017 3016 3014 3013 3011 3010 3009 3007 3006 3005 3003 3001 3000 2998 2996 2995 2993
3038 3039 3041 3043 3042 3042 3044 3046 3048 3050 3042 3031 3031 3037 3041 3041 3042 3041 3039 3038 3039 3039 3037 3036 3037 3039 3041 3041 3041 3040 3040 3039 3039 3039 3038 3038 3038 3038 3037 3036 3035 3035 3035 3035 3034 3034 3033 3033 3032 3032 3031 3030 3029 3028 3027 3026 3026 3025 3025 3024 3023 3023 3021 3020 3019 3017 3016 3014 3013 3012 3010 3009 3007 3006 3005 3003 3002 3000 2998 2997 2995 2994 2992 2990 2988 2986
3035 3036 3037 3039 3039 3038 3039 3043 3043 3037 3029 3027 3031 3035 3035 3036 3038 3036 3033 3034 3035 3034 3033 3032 3034 3035 3036 3036 3036 3035 3035 3035 3034 3034 3034 3033 3033 3033 3033 3032 3031 3031 3030 3030 3029 3029 3028 3028 3027 3026 3026 3025 3024 3023 3022 3022 3021 3021 3020 3020 3019 3018 3016 3015 3013 3012 3010 3009 3008 3007 3005 3004 3002 3001 2999 2998 2996 2994 2993 2991 2989 2988 2986 2984 2982 2981
3031 3032 3033 3035 3035 3035 3036 3036 3032 3025 3024 3029 3031 3029 3030 3032 3032 3030 3027 3028 3031 3030 3028 3028 3029 3031 3031 3031 3030 3030 3030 3030 3029 3029 3029 3028 3028 3029 3028 3028 3027 3026 3026 3025 3025 3024 3023 3023 3022 3021 3021 3020 3019 3019 3018 3018 3017 3017 3016 3015 3014 3013 3012 3010 3008 3007 3006 3004 3003 3002 3001 2999 2998 2996 2994 2993 2991 2989 2987 2985 2984 2982 2980 2978 2977 2975
3027 3027 3029 3031 3030 3030 3030 3028 3025 3023 3024 3025 3025 3025 3026 3026 3026 3026 3022 3023 3027 3026 3023 3023 3025 3026 3026 3026 3025 3026 3025 3024 3024 3024 3024 3024 3024 3024 3023 3023 3022 3021 3021 3020 3020 3019 3018 3018 3017 3016 3016 3016 3015 3015 3014 3014 3013 3012 3011 3010 3009 3008 3006 3005 3004 3002 3001 3000 2999 2997 2996 2994 2993 2991 2989 2988 2986 2984 2982 2980 2978 2976 2974 2972 2971 2969
3022 3023 3026 3026 3025 3026 3026 3025 3025 3023 3019 3018 3019 3020 3021 3020 3021 3022 3019 3018 3021 3021 3018 3019 3020 3020 3021 3021 3021 3021 3021 3020 3019 3020 3021 3020 3019 3019 3019 3018 3017 3017 3016 3015 3015 3014 3014 3013 3012 3012 3012 3011 3011 3010 3010 3009 3008 3007 3006 3005 3004 3003 3001 3000 2999 2998 2997 2995 2994 2992 2991 2989 2988 2986 2984 2982 2980 2978 2976 2974 2972 2970 2968 2966 2964 2963
3018 3019 3021 3022 3021 3022 3022 3020 3020 3016 3012 3013 3016 3016 3016 3016 3016 3018 3016 3013 3015 3016 3015 3015 3016 3016 3016 3016 3016 3017 3016 3014 3014 3016 3018 3016 3014 3014 3014 3013 3013 3012 3012 3011 3010 3010 3009 3008 3008 3008 3007 3007 3006 3005 3005 3004 3003 3001 3000 2999 2998 2997 2996 2995 2994 2993 2991 2990 2989 2987 2986 2984 2982 2980 2978 2976 2974 2972 2971 2969 2967 2964 2962 2960 2958 2956
3014 3015 3017 3017 3016 3017 3016 3015 3013 3010 3009 3010 3011 3012 3013 3012 3013 3016 3014 3009 3010 3013 3013 3012 3012 3012 3012 3012 3012 3012 3011 3010 3010 3012 3012 3011 3009 3009 3009 3009 3008 3007 3007 3006 3006 3005 3005 3004 3004 3003 3003 3002 3001 3000 2999 2998 2997 2996 2995 2994 2993 2992 2991 2990 2989 2988 2986 2985 2984 2982 2980 2978 2976 2975 2973 2971 2969 2967 2965 2963 2961 2958 2956 2954 2952 2950
3009 3010 3011 3011 3011 3012 3012 3011 3008 3005 3005 3006 3006 3008 3010 3010 3010 3010 3007 3005 3008 3010 3009 3009 3008 3007 3008 3007 3007 3007 3007 3007 3007 3007 3007 3006 3004 3004 3004 3004 3004 3003 3002 3001 3001 3000 3000 2999 2999 2998 2998 2997 2996 2995 2994 2993 2992 2991 2990 2989 2988 2987 2986 2985 2983 2982 2981 2980 2978 2976 2974 2973 2971 2969 2967 2965 2963 2961 2959 2957 2954 2952 2950 2948 2946 2944
3004 3005 3006 3007 3007 3007 3007 3007 3005 3001 3000 3001 3001 3003 3006 3005 3004 3003 3002 3005 3007 3006 3005 3006 3005 3004 3004 3003 3003 3002 3002 3002 3002 3002 3002 3001 3000 3000 2999 2999 2999 2998 2997 2996 2996 2995 2995 2994 2994 2993 2992 2992 2990 2990 2989 2988 2987 2986 2985 2984 2983 2982 2981 2980 2978 2977 2976 2974 2972 2971 2969 2967 2965 2963 2961 2959 2957 2955 2953 2951 2948 2946 2945 2943 2940 2938
2999 3001 3000 3000 3001 3002 3003 3005 3002 2995 2995 2997 2997 2998 3000 3000 2999 3000 3002 3003 3002 3002 3002 3002 3001 3001 3000 2999 2999 2998 2998 2997 2997 2997 2997 2997 2997 2996 2995 2994 2994 2994 2993 2992 2991 2991 2990 2989 2989 2988 2987 2986 2985 2984 2984 2983 2982 2981 2980 2979 2978 2977 2976 2974 2973 2972 2970 2968 2967 2965 2963 2961 2959 2957 2955 2953 2951 2949 2947 2945 2943 2941 2939 2937 2934 2932
2995 2995 2994 2994 2995 2996 2995 2995 2991 2988 2990 2994 2993 2994 2996 2996 2997 2998 2999 2998 2998 2999 2998 2997 2997 2997 2996 2995 2995 2994 2993 2993 2993 2993 2993 2992 2992 2992 2991 2990 2990 2989 2988 2988 2987 2986 2986 2985 2984 2983 2982 2981 2980 2979 2978 2978 2977 2976 2975 2974 2973 2972 2970 2969 2968 2966 2965 2963 2961 2959 2957 2955 2953 2951 2949 2947 2945 2943 2941 2940 2938 2936 2934 2931 2928 2926
2989 2989 2989 2989 2989 2988 2986 2985 2984 2985 2988 2989 2989 2991 2993 2994 2994 2995 2994 2994 2995 2994 2993 2993 2992 2992 2991 2991 2990 2989 2988 2988 2988 2988 2988 2987 2987 2987 2986 2985 2985 2984 2983 2983 2982 2982 2981 2980 2979 2978 2977 2977 2976 2975 2974 2973 2971 2970 2970 2969 2968 2967 2965 2964 2962 2961 2959 2957 2955 2953 2951 2950 2948 2945 2943 2941 2939 2938 2936 2934 2933 2931 2928 2926 2923 2920
2986 2986 2986 2984 2984 2983 2981 2981 2981 2982 2983 2984 2986 2989 2990 2990 2990 2990 2990 2990 2990 2989 2989 2988 2988 2988 2987 2986 2985 2984 2984 2983 2983 2983 2983 2983 2982 2982 2981 2981 2980 2980 2979 2978 2977 2977 2976 2975 2974 2973 2972 2972 2971 2970 2969 2968 2966 2965 2965 2964 2962 2961 2960 2958 2957 2955 2953 2952 2950 2948 2946 2944 2942 2940 2938 2936 2934 2933 2931 2929 2927 2925 2923 2920 2917 2914
2982 2983 2981 2979 2979 2978 2976 2975 2977 2979 2980 2981 2982 2984 2985 2986 2986 2986 2985 2985 2985 2984 2984 2983 2983 2983 2982 2981 2980 2979 2979 2979 2978 2978 2978 2978 2977 2977 2976 2976 2975 2975 2974 2973 2973 2972 2971 2970 2969 2968 2967 2967 2966 2965 2964 2963 2961 2960 2959 2958 2957 2956 2954 2953 2951 2949 2948 2946 2944 2942 2940 2939 2937 2935 2933 2931 2929 2928 2926 2924 2922 2920 2917 2914 2911 2908
2978 2978 2976 2974 2974 2973 2972 2973 2975 2976 2977 2978 2979 2980 2982 2982 2982 2981 2981 2980 2980 2979 2979 2979 2979 2978 2977 2976 2975 2974 2974 2974 2973 2973 2973 2973 2972 2972 2971 2971 2970 2970 2969 2968 2967 2966 2965 2965 2964 2963 2962 2962 2961 2960 2959 2957 2956 2955 2954 2952 2951 2950 2948 2947 2945 2944 2942 2941 2939 2937 2935 2933 2931 2930 2928 2926 2925 2923 2921 2919 2917 2915 2912 2909 2905 2902
2974 2973 2970 2969 2969 2968 2968 2970 2973 2973 2973 2975 2976 2976 2977 2978 2977 2977 2976 2975 2975 2974 2974 2974 2974 2973 2972 2971 2971 2969 2969 2969 2969 2968 2968 2968 2967 2967 2966 2966 2966 2965 2964 2963 2962 2961 2960 2960 2959 2958 2957 2956 2955 2954 2953 2952 2950 2949 2948 2947 2945 2944 2943 2941 2940 2938 2937 2935 2933 2931 2929 2928 2926 2925 2923 2922 2920 2919 2917 2914 2912 2909 2907 2904 2900 2896
2968 2966 2965 2965 2963 2961 2963 2968 2971 2971 2971 2972 2973 2973 2973 2973 2973 2972 2971 2971 2970 2969 2969 2969 2968 2968 2967 2966 2966 2965 2963 2963 2964 2963 2963 2962 2962 2961 2961 2961 2961 2960 2959 2958 2957 2956 2956 2955 2954 2953 2952 2951 2950 2949 2947 2946 2945 2944 2943 2941 2940 2939 2937 2936 2934 2933 2931 2929 2928 2926 2924 2923 2921 2920 2918 2917 2915 2914 2912 2909 2907 2903 2901 2898 2895 2891
2963 2962 2961 2960 2957 2957 2961 2966 2968 2967 2967 2968 2969 2969 2969 2968 2968 2966 2966 2966 2965 2965 2965 2964 2963 2962 2962 2961 2961 2959 2958 2958 2959 2958 2957 2957 2956 2956 2956 2956 2955 2954 2954 2953 2952 2951 2951 2950 2949 2948 2947 2946 2945 2943 2942 2940 2939 2938 2937 2936 2934 2933 2932 2930 2929 2927 2926 2924 2922 2921 2919 2918 2916 2915 2913 2912 2910 2908 2906 2905 2902 2899 2895 2892 2889 2885